This is the latest recevied weather packets stored in our database for station/object KF0JHJ. If no packets are shown the sender has not sent any weather packets the latest 10 day(s).
| Time | Temp. | Humidity | Pressure | Rain* | Wind** | Luminosity | Snow |
|---|---|---|---|---|---|---|---|
| 1777894935 | 12.78° C | 56% | 995.1 hPa | - | - | 17 W/m² | - |
| 1777894633 | 12.22° C | 56% | 994.7 hPa | - | - | 16 W/m² | - |
| 1777894329 | 12.22° C | 57% | 994.7 hPa | - | - | 12 W/m² | - |
| 1777894027 | 11.67° C | 58% | 994.8 hPa | - | - | 11 W/m² | - |
| 1777893723 | 11.67° C | 57% | 994.6 hPa | - | - | 7 W/m² | - |
| 1777893419 | 11.67° C | 57% | 994.7 hPa | - | - | 4 W/m² | - |
| 1777893115 | 12.22° C | 57% | 994.8 hPa | - | - | 1 W/m² | - |
| 1777892813 | 12.22° C | 57% | 994.9 hPa | - | - | 0 W/m² | - |
| 1777892509 | 12.22° C | 57% | 994.7 hPa | - | - | 0 W/m² | - |
| 1777892204 | 11.67° C | 57% | 994.5 hPa | - | - | 0 W/m² | - |
| 1777891901 | 11.67° C | 57% | 994.7 hPa | - | - | 0 W/m² | - |
| 1777891599 | 12.22° C | 56% | 994.5 hPa | - | - | 0 W/m² | - |
| 1777891295 | 11.67° C | 57% | 994.5 hPa | - | - | 0 W/m² | - |
| 1777890995 | 11.67° C | 57% | 994.3 hPa | - | - | 0 W/m² | - |
| 1777890690 | 11.67° C | 57% | 994.2 hPa | - | - | 0 W/m² | - |
| 1777890386 | 11.67° C | 57% | 994.1 hPa | - | - | 0 W/m² | - |
| 1777890082 | 11.67° C | 57% | 994.3 hPa | - | - | 0 W/m² | - |
| 1777889780 | 11.67° C | 58% | 994.4 hPa | - | - | 0 W/m² | - |
| 1777889477 | 11.67° C | 59% | 994.5 hPa | - | - | 0 W/m² | - |
| 1777889175 | 11.11° C | 59% | 994.4 hPa | - | - | 0 W/m² | - |
| 1777888873 | 11.67° C | 58% | 994.4 hPa | - | - | 0 W/m² | - |
| 1777888568 | 11.11° C | 59% | 994.6 hPa | - | - | 0 W/m² | - |
| 1777888265 | 11.11° C | 60% | 994.8 hPa | - | - | 0 W/m² | - |
| 1777887962 | 11.11° C | 60% | 994.9 hPa | - | - | 0 W/m² | - |
| 1777887659 | 11.11° C | 60% | 995 hPa | - | - | 0 W/m² | - |
* Rain since midnight (hover to see other rain measurements)
** Current wind speed in m/s (hover to see current wind gust speed)